TimeEDT,TemperatureF,Dew PointF,Humidity,Sea Level PressureIn,VisibilityMPH,Wind Direction,Wind SpeedMPH,Gust SpeedMPH,PrecipitationIn,Events,Conditions,WindDirDegrees,DateUTC
12:52 AM,63.0,62.1,97,30.06,10.0,Calm,Calm,-,N/A,,Clear,0,2013-05-30 04:52:00
1:52 AM,62.1,61.0,96,30.06,10.0,Calm,Calm,-,N/A,,Clear,0,2013-05-30 05:52:00
2:52 AM,60.1,59.0,96,30.06,5.0,Calm,Calm,-,N/A,,Clear,0,2013-05-30 06:52:00
2:58 AM,60.8,59.0,94,30.06,1.8,Calm,Calm,-,N/A,,Clear,0,2013-05-30 06:58:00
3:04 AM,59.0,59.0,100,30.06,1.0,Calm,Calm,-,N/A,,Clear,0,2013-05-30 07:04:00
3:13 AM,60.8,57.2,88,30.05,1.5,Calm,Calm,-,N/A,,Clear,0,2013-05-30 07:13:00
3:17 AM,60.8,59.0,94,30.05,3.0,Calm,Calm,-,N/A,,Clear,0,2013-05-30 07:17:00
3:25 AM,57.2,57.2,100,30.06,1.5,Calm,Calm,-,N/A,,Partly Cloudy,0,2013-05-30 07:25:00
3:27 AM,57.2,57.2,100,30.06,0.8,Calm,Calm,-,N/A,,Mist,0,2013-05-30 07:27:00
3:52 AM,57.0,57.0,100,30.06,0.8,Calm,Calm,-,N/A,,Mist,0,2013-05-30 07:52:00
4:52 AM,57.0,57.0,100,30.06,0.2,Calm,Calm,-,N/A,Fog,Fog,0,2013-05-30 08:52:00
5:20 AM,57.2,57.2,100,30.07,1.0,Calm,Calm,-,N/A,,Overcast,0,2013-05-30 09:20:00
5:28 AM,57.2,57.2,100,30.07,1.5,Calm,Calm,-,N/A,,Overcast,0,2013-05-30 09:28:00
5:37 AM,57.2,57.2,100,30.07,1.0,Calm,Calm,-,N/A,,Overcast,0,2013-05-30 09:37:00
5:45 AM,57.2,57.2,100,30.07,0.5,Calm,Calm,-,N/A,Fog,Fog,0,2013-05-30 09:45:00
5:52 AM,57.9,57.9,100,30.08,0.2,NNW,3.5,-,N/A,Fog,Fog,340,2013-05-30 09:52:00
6:52 AM,61.0,60.1,97,30.08,0.5,Calm,Calm,-,N/A,Fog,Fog,0,2013-05-30 10:52:00
7:12 AM,62.6,62.6,100,30.09,1.2,Calm,Calm,-,N/A,,Overcast,0,2013-05-30 11:12:00
7:24 AM,62.6,62.6,100,30.10,0.8,SSW,5.8,-,N/A,,Overcast,200,2013-05-30 11:24:00
7:44 AM,62.6,62.6,100,30.10,1.2,South,3.5,-,N/A,,Overcast,190,2013-05-30 11:44:00
7:52 AM,63.0,63.0,100,30.10,2.0,SSW,3.5,-,N/A,,Overcast,200,2013-05-30 11:52:00
8:03 AM,64.4,62.6,94,30.10,6.0,South,5.8,-,N/A,,Mostly Cloudy,190,2013-05-30 12:03:00
8:31 AM,66.2,64.4,94,30.11,10.0,South,4.6,-,N/A,,Scattered Clouds,180,2013-05-30 12:31:00
8:52 AM,69.1,64.9,87,30.11,10.0,Variable,3.5,-,N/A,,Clear,0,2013-05-30 12:52:00
9:52 AM,73.9,66.0,76,30.10,10.0,SW,3.5,-,N/A,,Clear,220,2013-05-30 13:52:00
10:52 AM,78.1,64.9,64,30.09,10.0,West,8.1,-,N/A,,Clear,270,2013-05-30 14:52:00
11:52 AM,80.1,64.9,60,30.09,10.0,West,10.4,-,N/A,,Clear,270,2013-05-30 15:52:00
12:52 PM,82.9,64.0,53,30.09,10.0,West,9.2,16.1,N/A,,Partly Cloudy,270,2013-05-30 16:52:00
1:52 PM,82.9,64.0,53,30.07,10.0,WNW,12.7,-,N/A,,Scattered Clouds,300,2013-05-30 17:52:00
2:52 PM,86.0,63.0,46,30.06,10.0,WNW,12.7,20.7,N/A,,Partly Cloudy,300,2013-05-30 18:52:00
3:52 PM,86.0,62.1,44,30.04,10.0,West,12.7,21.9,N/A,,Clear,280,2013-05-30 19:52:00
4:52 PM,87.1,61.0,41,30.04,10.0,West,13.8,19.6,N/A,,Partly Cloudy,280,2013-05-30 20:52:00
5:52 PM,87.1,60.1,40,30.04,10.0,West,6.9,-,N/A,,Partly Cloudy,280,2013-05-30 21:52:00
6:52 PM,86.0,61.0,43,30.04,10.0,West,8.1,-,N/A,,Clear,270,2013-05-30 22:52:00
7:52 PM,82.0,61.0,49,30.05,10.0,WSW,4.6,-,N/A,,Clear,250,2013-05-30 23:52:00
8:52 PM,72.0,64.9,78,30.06,10.0,Calm,Calm,-,N/A,,Clear,0,2013-05-31 00:52:00
9:52 PM,69.1,66.0,90,30.07,10.0,Calm,Calm,-,0.00,,Clear,0,2013-05-31 01:52:00
10:52 PM,66.0,64.0,93,30.07,6.0,Calm,Calm,-,N/A,,Clear,0,2013-05-31 02:52:00
11:48 PM,64.4,62.6,94,30.09,1.5,Calm,Calm,-,N/A,,Clear,0,2013-05-31 03:48:00
11:50 PM,62.6,62.6,100,30.09,1.0,Calm,Calm,-,N/A,,Clear,0,2013-05-31 03:50:00
11:52 PM,63.0,62.1,97,30.08,1.0,Calm,Calm,-,N/A,,Clear,0,2013-05-31 03:52:00